Location: Unspecified
(20.0000°S, 0.0000°E)
Time: 15:39:50
(UTC+00:00)

NUDT-PHONESAT - Visible Passes

Search period start: 21 July 2019 00:00
Search period end: 31 July 2019 00:00
Orbit: 487 x 507 km, 97.4° (Epoch: 21 July)

Date Brightness Start Highest point End Pass type
(mag) Time Alt. Az. Time Alt. Az. Time Alt. Az.
21 Jul ? 06:03:42 10° N 06:07:21 66° W 06:11:04 10° SSW visible
21 Jul ? 19:19:28 10° WSW 19:20:23 11° WSW 19:21:17 10° W visible
22 Jul ? 05:43:18 10° NNE 05:46:54 55° ESE 05:50:34 10° S visible
22 Jul ? 18:57:11 10° SSW 19:00:02 21° WSW 19:02:51 10° NW visible
23 Jul ? 05:23:22 10° NE 05:26:30 26° ESE 05:29:39 10° SSE visible
23 Jul ? 18:36:07 10° S 18:39:38 43° WSW 18:43:06 10° NNW visible
24 Jul ? 05:04:15 10° ENE 05:06:08 14° ESE 05:08:02 10° SE visible
24 Jul ? 18:15:30 10° SSE 18:19:12 84° ENE 18:22:50 10° N visible
26 Jul ? 05:54:50 10° NNE 05:58:31 87° E 06:02:17 10° S visible
26 Jul ? 19:09:32 10° SW 19:11:35 14° WSW 19:13:39 10° WNW visible
27 Jul ? 05:34:37 10° NNE 05:38:05 39° ESE 05:41:36 10° S visible
27 Jul ? 18:48:01 10° SSW 18:51:13 28° WSW 18:54:23 10° NW visible
28 Jul ? 05:14:57 10° ENE 05:17:41 20° ESE 05:20:27 10° SSE visible
28 Jul ? 18:27:09 10° S 18:30:48 61° WSW 18:34:22 10° NNW visible
29 Jul ? 18:06:41 10° SSE 18:10:19 58° E 18:13:52 10° N visible
30 Jul ? 06:06:29 10° N 06:10:08 60° W 06:13:50 10° SSW visible
